DW9864 Weather Reports


time (UTC)temp
C
wind
direction
speed
KPH
gust
KPH
rain 1hr
cm
rain 24hr
cm
rain mn
cm
humidity
%
barometer
mb
20260507061003 8 185 3.2 8.0 0.00 0.23 0.00 92 1014.0
20260507060503 8 179 3.2 6.4 0.00 0.23 0.00 92 1014.0
20260507060003 8 179 3.2 6.4 0.00 0.23 0.00 93 1014.1
20260507055517 8 188 3.2 6.4 0.00 0.23 0.00 93 1014.2
20260507055003 8 214 3.2 6.4 0.00 0.23 0.00 93 1014.2
20260507054503 8 270 1.6 4.8 0.00 0.23 0.00 93 1014.1
20260507054003 8 281 1.6 3.2 0.00 0.23 0.00 92 1014.1
20260507053503 7 282 0.0 3.2 0.00 0.23 0.00 92 1014.1
20260507053003 7 281 0.0 3.2 0.00 0.23 0.00 92 1014.0
20260507052503 7 281 1.6 3.2 0.00 0.23 0.00 92 1014.0
20260507052003 7 281 0.0 3.2 0.00 0.23 0.00 92 1014.1
20260507051503 7 282 1.6 3.2 0.00 0.23 0.00 92 1014.0
20260507051003 8 289 3.2 8.0 0.00 0.25 0.00 92 1013.9
20260507050503 8 294 4.8 9.7 0.00 0.25 0.00 92 1014.0
20260507050003 8 300 3.2 9.7 0.00 0.28 0.00 92 1014.0
20260507045503 8 303 3.2 8.0 0.00 0.33 0.00 92 1014.0
20260507045003 8 298 3.2 6.4 0.00 0.36 0.00 92 1014.0
20260507044517 8 286 1.6 6.4 0.00 0.38 0.00 92 1014.0
20260507044003 8 282 0.0 3.2 0.00 0.41 0.00 92 1013.9
20260507043503 8 282 1.6 3.2 0.00 0.46 0.00 92 1013.8
20260507043003 8 282 0.0 3.2 0.00 0.48 0.00 92 1013.9
20260507042503 8 282 0.0 3.2 0.00 0.51 0.00 92 1013.8
20260507042003 8 282 0.0 3.2 0.00 0.51 0.00 92 1014.0
20260507041503 8 282 0.0 3.2 0.00 0.53 0.00 92 1013.9
20260507041003 8 282 1.6 3.2 0.00 0.53 0.00 92 1013.8
20260507040503 8 282 1.6 3.2 0.00 0.53 0.00 92 1014.0
20260507040003 8 282 1.6 3.2 0.00 0.53 0.00 92 1014.1
20260507035503 8 283 1.6 3.2 0.00 0.53 0.00 92 1014.1
20260507035003 8 283 1.6 4.8 0.00 0.53 0.00 92 1014.1
20260507034503 8 283 1.6 4.8 0.00 0.53 0.00 92 1014.1
20260507034017 8 283 0.0 3.2 0.00 0.53 0.00 92 1014.1
20260507033503 8 283 0.0 1.6 0.00 0.53 0.00 92 1014.1
20260507033003 8 283 0.0 1.6 0.00 0.53 0.00 92 1014.1
20260507032503 8 283 0.0 3.2 0.00 0.53 0.00 91 1014.1
20260507032017 8 283 0.0 3.2 0.00 0.53 0.00 92 1014.2
20260507031517 8 278 1.6 4.8 0.00 0.53 0.00 92 1014.0
20260507031003 8 287 3.2 6.4 0.00 0.53 0.00 92 1014.1
20260507030503 8 289 3.2 8.0 0.00 0.53 0.00 92 1014.1
20260507030017 8 293 3.2 11.3 0.00 0.53 0.00 92 1014.2
20260507025503 8 296 3.2 11.3 0.00 0.53 0.00 92 1014.2
20260507025003 8 285 3.2 6.4 0.00 0.53 0.00 92 1014.1
20260507024503 8 279 3.2 6.4 0.00 0.53 0.00 92 1014.0
20260507024003 8 274 1.6 6.4 0.00 0.53 0.00 92 1014.1
20260507023518 8 264 1.6 4.8 0.00 0.53 0.00 92 1014.2
20260507023003 8 250 1.6 4.8 0.00 0.53 0.00 92 1014.2
20260507022503 8 227 1.6 4.8 0.00 0.53 0.00 92 1014.2
20260507022003 8 200 0.0 1.6 0.00 0.53 0.00 92 1014.3
20260507021517 8 200 0.0 1.6 0.00 0.53 0.00 92 1014.3
20260507021017 8 200 0.0 1.6 0.00 0.53 0.00 92 1014.2
20260507020503 8 200 0.0 1.6 0.00 0.53 0.00 92 1014.3
20260507020003 8 200 0.0 1.6 0.00 0.53 0.00 92 1014.2
20260507015503 8 200 0.0 1.6 0.00 0.53 0.00 92 1014.3
20260507015003 8 200 0.0 1.6 0.00 0.53 0.00 92 1014.3
20260507014503 8 200 0.0 3.2 0.00 0.53 0.00 92 1014.3
20260507014003 8 200 1.6 4.8 0.00 0.53 0.00 92 1014.3
20260507013517 8 241 1.6 6.4 0.00 0.53 0.00 91 1014.4
20260507013017 8 309 3.2 6.4 0.00 0.53 0.00 91 1014.5
20260507012517 8 290 3.2 6.4 0.00 0.53 0.00 92 1014.5
20260507012017 9 255 3.2 6.4 0.00 0.53 0.00 92 1014.5
20260507011503 9 248 1.6 4.8 0.00 0.53 0.00 91 1014.5
20260507011003 9 248 0.0 4.8 0.00 0.53 0.00 91 1014.4
20260507010503 9 248 0.0 3.2 0.00 0.53 0.00 91 1014.5
20260507010003 9 248 0.0 3.2 0.00 0.53 0.00 91 1014.5
20260507005503 9 248 0.0 3.2 0.00 0.53 0.00 91 1014.5
20260507005003 9 248 0.0 3.2 0.00 0.53 0.00 91 1014.5
20260507004503 10 248 1.6 4.8 0.00 0.53 0.00 91 1014.6
20260507004003 10 241 1.6 4.8 0.00 0.53 0.00 91 1014.7
20260507003503 9 207 1.6 4.8 0.00 0.53 0.00 91 1014.7
20260507003003 10 271 3.2 6.4 0.00 0.53 0.00 91 1014.8
20260507002503 10 300 3.2 6.4 0.00 0.53 0.00 91 1014.8
20260507002003 10 294 1.6 4.8 0.00 0.53 0.00 91 1014.8
20260507001503 10 294 0.0 4.8 0.00 0.53 0.00 91 1014.8
20260507001003 10 295 0.0 1.6 0.00 0.53 0.00 91 1014.8
20260507000503 10 295 0.0 1.6 0.00 0.53 0.00 91 1014.9
20260507000003 10 295 0.0 3.2 0.00 0.53 0.00 91 1014.9
20260506235517 10 305 1.6 4.8 0.00 0.53 0.00 91 1015.0
20260506235003 10 311 1.6 4.8 0.00 0.53 0.00 92 1014.9
20260506234503 10 309 1.6 4.8 0.00 0.53 0.00 91 1014.9
20260506234003 10 297 3.2 4.8 0.00 0.53 0.00 91 1015.0
20260506233503 10 291 3.2 4.8 0.00 0.53 0.00 91 1015.1
20260506233003 10 292 1.6 4.8 0.00 0.53 0.00 91 1015.2
20260506232503 10 292 0.0 3.2 0.00 0.53 0.00 91 1015.2
20260506232003 10 291 0.0 4.8 0.00 0.53 0.00 91 1015.1
20260506231503 10 298 1.6 9.7 0.00 0.53 0.00 91 1015.2
20260506231003 10 304 3.2 9.7 0.00 0.53 0.00 91 1015.2
20260506230503 10 313 1.6 6.4 0.00 0.53 0.00 91 1015.3
20260506230017 10 334 0.0 3.2 0.00 0.53 0.00 91 1015.4
20260506225503 10 334 0.0 1.6 0.00 0.53 0.00 90 1015.2
20260506225003 10 334 0.0 3.2 0.00 0.53 0.00 90 1015.3
20260506224503 10 334 0.0 3.2 0.00 0.53 0.00 90 1015.3
20260506224003 10 334 0.0 3.2 0.00 0.53 0.00 90 1015.2
20260506223517 10 0 0.0 0.0 0.00 0.53 0.00 90 1015.2
20260506223003 10 0 0.0 0.0 0.00 0.53 0.00 90 1015.4
20260506222503 10 0 0.0 0.0 0.00 0.53 0.00 89 1015.4
20260506222003 10 0 0.0 0.0 0.00 0.53 0.00 89 1015.5
20260506221504 10 0 0.0 0.0 0.00 0.53 0.00 89 1015.4
20260506221017 10 0 0.0 0.0 0.00 0.53 0.00 89 1015.4
20260506220503 11 0 0.0 0.0 0.00 0.53 0.00 89 1015.3
20260506220003 11 0 0.0 0.0 0.00 0.53 0.00 89 1015.4
20260506215503 11 0 0.0 0.0 0.00 0.53 0.53 89 1015.4
20260506215003 11 0 0.0 0.0 0.00 0.53 0.53 89 1015.4
20260506214517 11 0 0.0 0.0 0.00 0.53 0.53 89 1015.4
20260506214017 11 0 0.0 0.0 0.00 0.53 0.53 89 1015.5
20260506213503 11 335 0.0 3.2 0.00 0.53 0.53 89 1015.6
20260506213003 11 335 0.0 3.2 0.00 0.53 0.53 89 1015.6
20260506212503 11 0 0.0 0.0 0.00 0.53 0.53 88 1015.5
20260506212003 11 0 0.0 0.0 0.00 0.53 0.53 88 1015.6
20260506211503 11 0 0.0 0.0 0.00 0.53 0.53 88 1015.4
20260506211003 11 0 0.0 0.0 0.00 0.53 0.53 88 1015.5
20260506210503 11 0 0.0 0.0 0.00 0.53 0.53 87 1015.4
20260506210003 11 0 0.0 0.0 0.00 0.53 0.53 87 1015.5
20260506205503 11 0 0.0 0.0 0.00 0.53 0.53 87 1015.3
20260506205003 11 0 0.0 0.0 0.00 0.53 0.53 87 1015.4
20260506204503 11 0 0.0 0.0 0.00 0.53 0.53 87 1015.4
20260506204003 11 0 0.0 0.0 0.00 0.53 0.53 86 1015.4
20260506203503 11 0 0.0 0.0 0.00 0.53 0.53 86 1015.4
20260506203003 11 0 0.0 0.0 0.00 0.53 0.53 86 1015.4
20260506202503 11 0 0.0 0.0 0.00 0.53 0.53 86 1015.4
20260506202003 12 0 0.0 0.0 0.00 0.53 0.53 86 1015.3
20260506201503 12 0 0.0 0.0 0.00 0.53 0.53 85 1015.3
20260506201003 12 0 0.0 0.0 0.00 0.53 0.53 85 1015.2
20260506200503 12 0 0.0 0.0 0.00 0.53 0.53 85 1015.3
20260506200003 12 0 0.0 0.0 0.00 0.53 0.53 85 1015.2
20260506195517 12 0 0.0 0.0 0.00 0.53 0.53 85 1015.2
20260506195003 12 335 0.0 1.6 0.00 0.53 0.53 85 1015.1
20260506194503 12 335 0.0 1.6 0.00 0.53 0.53 84 1015.0
20260506194003 12 335 0.0 1.6 0.00 0.53 0.53 84 1014.9
20260506193503 12 335 0.0 1.6 0.00 0.53 0.53 84 1014.9
20260506193003 12 335 0.0 3.2 0.00 0.53 0.53 84 1014.9
20260506192503 12 335 1.6 3.2 0.00 0.53 0.53 84 1014.9
20260506192003 12 335 1.6 3.2 0.00 0.53 0.53 83 1014.7
20260506191503 12 335 1.6 3.2 0.00 0.53 0.53 83 1014.8
20260506191003 12 335 1.6 3.2 0.00 0.53 0.53 83 1014.8
20260506190503 12 335 1.6 3.2 0.00 0.53 0.53 83 1014.8
20260506190003 12 335 1.6 3.2 0.00 0.53 0.53 83 1014.7
20260506185503 12 335 1.6 3.2 0.00 0.53 0.53 83 1014.7
20260506185003 13 335 1.6 3.2 0.00 0.53 0.53 82 1014.6
20260506184503 13 335 1.6 3.2 0.00 0.53 0.53 82 1014.6
20260506184017 13 335 1.6 3.2 0.00 0.53 0.53 82 1014.7
20260506183503 13 335 1.6 4.8 0.00 0.56 0.53 82 1014.7
20260506183017 13 333 1.6 4.8 0.00 0.56 0.53 81 1014.6
20260506182517 13 328 1.6 4.8 0.00 0.56 0.53 81 1014.6
20260506182017 13 324 0.0 3.2 0.00 0.56 0.53 80 1014.7
20260506181503 13 320 0.0 4.8 0.00 0.56 0.53 80 1014.6
20260506181003 14 320 0.0 4.8 0.00 0.56 0.53 80 1014.6
20260506180503 14 315 1.6 4.8 0.00 0.56 0.53 80 1014.6
20260506180003 14 293 1.6 6.4 0.00 0.56 0.53 79 1014.7
20260506175503 14 240 1.6 6.4 0.00 0.56 0.53 78 1014.7
20260506175003 15 188 0.0 3.2 0.00 0.56 0.53 80 1014.7
20260506174503 15 186 0.0 1.6 0.00 0.56 0.53 80 1014.6
20260506174003 15 186 1.6 3.2 0.00 0.56 0.53 80 1014.6
20260506173503 14 186 1.6 3.2 0.00 0.56 0.53 80 1014.7
20260506173003 14 186 1.6 4.8 0.00 0.56 0.53 79 1014.6
20260506172503 14 185 1.6 4.8 0.00 0.56 0.53 80 1014.7
20260506172003 14 184 1.6 4.8 0.00 0.56 0.53 81 1014.7
20260506171503 14 181 1.6 3.2 0.00 0.56 0.53 81 1014.7
20260506171003 14 187 1.6 3.2 0.00 0.56 0.53 81 1014.6
20260506170503 14 251 1.6 3.2 0.00 0.56 0.53 80 1014.7
20260506170003 14 276 1.6 3.2 0.00 0.56 0.53 80 1014.7
20260506165503 14 277 1.6 3.2 0.00 0.56 0.53 79 1014.7
20260506165003 13 250 1.6 6.4 0.00 0.56 0.53 80 1014.7
20260506164503 13 217 3.2 8.0 0.00 0.56 0.53 79 1014.7
20260506164003 13 200 3.2 8.0 0.00 0.56 0.53 79 1014.6
20260506163503 13 192 3.2 6.4 0.00 0.56 0.53 79 1014.8
20260506163003 13 237 1.6 6.4 0.00 0.56 0.53 79 1014.8
20260506162503 13 277 1.6 8.0 0.00 0.56 0.53 79 1014.9
20260506162003 14 261 1.6 8.0 0.00 0.56 0.53 77 1014.9
20260506161517 14 272 3.2 12.9 0.00 0.56 0.53 77 1014.9
20260506161003 14 299 3.2 12.9 0.00 0.56 0.53 76 1014.8
20260506160503 15 294 3.2 6.4 0.00 0.56 0.53 77 1014.8
20260506160003 14 287 3.2 9.7 0.00 0.56 0.53 78 1014.8
20260506155503 14 285 3.2 9.7 0.00 0.56 0.53 77 1014.9
20260506155003 14 287 3.2 8.0 0.00 0.56 0.53 77 1015.0
20260506154503 14 317 3.2 9.7 0.00 0.56 0.53 76 1014.9
20260506154003 15 300 3.2 9.7 0.00 0.58 0.53 75 1015.1
20260506153503 15 299 3.2 6.4 0.00 0.61 0.53 76 1015.0
20260506153003 14 223 3.2 9.7 0.00 0.61 0.53 79 1015.0
20260506152503 14 202 3.2 9.7 0.00 0.64 0.53 81 1014.9
20260506152017 14 216 3.2 8.0 0.00 0.64 0.53 82 1014.9
20260506151503 13 215 3.2 9.7 0.00 0.64 0.53 81 1015.0
20260506151003 13 215 4.8 12.9 0.00 0.64 0.53 81 1015.0
20260506150503 13 216 4.8 12.9 0.00 0.64 0.53 81 1015.0
20260506150003 13 219 3.2 8.0 0.00 0.66 0.53 82 1015.0
20260506145517 13 207 3.2 8.0 0.00 0.66 0.53 82 1015.0
20260506145017 13 223 3.2 9.7 0.00 0.69 0.53 81 1015.1
20260506144503 13 256 3.2 9.7 0.00 0.71 0.53 81 1015.1
20260506144003 13 262 3.2 11.3 0.00 0.71 0.53 80 1015.1
20260506143517 13 258 3.2 11.3 0.00 0.71 0.53 81 1015.2
20260506143003 13 249 3.2 11.3 0.00 0.71 0.53 80 1015.2
20260506142503 13 239 4.8 11.3 0.00 0.71 0.53 80 1015.1
20260506142017 13 216 3.2 9.7 0.00 0.71 0.53 82 1015.2
20260506141503 13 196 1.6 9.7 0.00 0.71 0.53 82 1015.2
20260506141003 13 182 3.2 8.0 0.00 0.71 0.53 85 1015.2
20260506140503 13 203 3.2 9.7 0.03 0.74 0.53 84 1015.3
20260506140003 13 234 3.2 9.7 0.03 0.76 0.53 85 1015.4
20260506135503 13 270 4.8 12.9 0.03 0.76 0.53 85 1015.4
20260506135017 13 288 4.8 12.9 0.03 0.79 0.53 86 1015.3
20260506134503 13 289 4.8 14.5 0.03 0.79 0.53 86 1015.4
20260506133517 13 193 3.2 11.3 0.03 0.84 0.53 87 1015.4
20260506133003 13 205 3.2 9.7 0.03 0.86 0.53 87 1015.2
20260506132503 12 193 3.2 12.9 0.03 0.89 0.53 87 1015.2
20260506132003 12 172 6.4 14.5 0.05 0.89 0.53 87 1015.2
20260506131503 12 169 3.2 14.5 0.05 0.89 0.53 88 1015.2
20260506131003 12 173 3.2 16.1 0.05 0.89 0.53 89 1015.2
20260506130503 12 170 4.8 16.1 0.05 0.89 0.51 89 1015.1
20260506130003 12 164 4.8 12.9 0.05 0.91 0.51 89 1015.1
20260506125503 12 160 3.2 12.9 0.05 0.94 0.51 89 1015.1
20260506125003 12 159 3.2 14.5 0.05 0.94 0.51 89 1015.0
20260506124503 12 151 3.2 14.5 0.05 0.97 0.51 89 1015.0
20260506124017 12 171 3.2 8.0 0.05 0.97 0.51 89 1015.0
20260506123503 12 191 4.8 9.7 0.05 0.99 0.51 89 1015.0
20260506123003 12 184 4.8 9.7 0.05 0.99 0.51 88 1015.0
20260506122517 12 161 4.8 12.9 0.05 0.99 0.51 88 1015.0
20260506122003 12 177 4.8 12.9 0.03 1.04 0.51 87 1015.0
20260506121503 12 226 4.8 12.9 0.03 1.12 0.51 85 1015.0
20260506121003 12 230 6.4 12.9 0.00 1.09 0.48 85 1015.0
20260506120503 13 219 6.4 16.1 0.00 1.09 0.48 84 1015.0
20260506120003 13 190 6.4 16.1 0.00 1.09 0.48 84 1014.9
20260506115517 13 164 3.2 12.9 0.00 1.09 0.48 83 1014.9
20260506115003 13 163 1.6 11.3 0.00 1.09 0.48 83 1014.8
20260506114503 13 159 1.6 8.0 0.00 1.09 0.48 83 1014.8
20260506114003 13 157 3.2 9.7 0.00 1.09 0.48 84 1014.9
20260506113503 13 157 3.2 9.7 0.00 1.09 0.48 83 1014.9
20260506113003 13 155 3.2 9.7 0.00 1.09 0.48 82 1014.9
20260506112503 13 162 3.2 9.7 0.00 1.09 0.48 82 1015.0
20260506112003 13 176 3.2 9.7 0.00 1.09 0.48 81 1014.9
20260506111517 13 170 3.2 9.7 0.00 1.09 0.48 81 1014.8
20260506111003 13 161 4.8 11.3 0.00 1.09 0.48 80 1014.7
20260506110503 14 156 6.4 12.9 0.00 1.09 0.48 81 1014.6
20260506110003 13 156 6.4 12.9 0.00 1.09 0.48 79 1014.6
20260506105503 13 167 4.8 11.3 0.00 1.09 0.48 79 1014.5
20260506105017 13 185 4.8 17.7 0.00 1.09 0.48 79 1014.6
20260506104503 13 180 6.4 17.7 0.00 1.09 0.48 79 1014.6
20260506104003 13 164 4.8 11.3 0.00 1.09 0.48 80 1014.5
20260506103503 13 161 3.2 11.3 0.00 1.09 0.48 80 1014.5
20260506103003 13 188 3.2 11.3 0.00 1.09 0.48 80 1014.5
20260506102503 13 204 3.2 12.9 0.00 1.09 0.48 81 1014.6
20260506102017 13 219 4.8 12.9 0.00 1.09 0.48 81 1014.6
20260506101503 13 190 4.8 17.7 0.00 1.09 0.48 83 1014.5
20260506101003 13 186 4.8 17.7 0.00 1.09 0.48 83 1014.5
20260506100503 13 197 3.2 11.3 0.03 1.09 0.48 85 1014.6
20260506100017 12 173 4.8 14.5 0.05 1.09 0.48 85 1014.6
20260506095503 12 169 4.8 14.5 0.05 1.09 0.48 86 1014.5
20260506095003 12 166 6.4 12.9 0.05 1.09 0.48 86 1014.6
20260506094503 12 161 8.0 19.3 0.05 1.09 0.48 86 1014.6
20260506094003 12 160 4.8 19.3 0.05 1.09 0.48 87 1014.5
20260506093503 12 158 1.6 9.7 0.05 1.09 0.48 88 1014.5
20260506093017 12 153 3.2 9.7 0.05 1.09 0.48 87 1014.5
20260506092503 12 151 4.8 11.3 0.05 1.09 0.48 87 1014.6
20260506092003 12 163 3.2 11.3 0.05 1.09 0.48 87 1014.6
20260506091517 12 177 3.2 8.0 0.05 1.09 0.48 87 1014.6
20260506091003 12 173 3.2 9.7 0.05 1.09 0.48 87 1014.5
20260506090503 12 219 3.2 11.3 0.05 1.09 0.46 87 1014.5
20260506090003 12 290 1.6 11.3 0.05 1.07 0.43 87 1014.5
20260506085503 12 307 1.6 4.8 0.08 1.07 0.43 88 1014.3
20260506085003 12 293 1.6 8.0 0.10 1.07 0.43 88 1014.4
20260506084503 12 195 1.6 8.0 0.10 1.07 0.43 88 1014.3
20260506084003 12 192 1.6 6.4 0.10 1.07 0.43 88 1014.2
20260506083503 12 235 1.6 6.4 0.08 1.04 0.43 88 1014.3
20260506083017 11 202 1.6 8.0 0.08 1.04 0.43 89 1014.3
20260506082503 11 181 1.6 8.0 0.08 1.04 0.43 88 1014.2
20260506082003 11 245 1.6 8.0 0.08 1.04 0.43 89 1014.2
20260506081503 11 322 1.6 6.4 0.08 1.04 0.43 90 1014.3
20260506081017 11 241 1.6 6.4 0.08 1.04 0.43 90 1014.2
20260506080503 11 176 1.6 6.4 0.05 1.02 0.43 90 1014.2
20260506073503 11 111 0.0 3.2 0.00 1.02 0.33 92 1014.1
20260506073017 11 111 0.0 1.6 0.00 1.04 0.33 92 1013.9
20260506072503 11 111 0.0 3.2 0.00 1.04 0.33 92 1013.8
20260506072003 11 111 0.0 3.2 0.00 1.07 0.33 92 1013.9
20260506071503 11 111 0.0 1.6 0.00 1.07 0.33 92 1013.9
20260506071003 11 111 0.0 3.2 0.03 1.09 0.33 92 1013.9
20260506070503 11 111 0.0 3.2 0.03 1.14 0.33 92 1013.8
20260506062503 10 80 0.0 3.2 0.03 1.32 0.33 92 1013.6
20260506062017 10 80 0.0 3.2 0.03 1.37 0.33 92 1013.6
20260506061517 10 80 0.0 1.6 0.05 1.42 0.33 92 1013.5